Weather in Sukhanovka

Russia / Sverdlovsk Oblast     56°08′45″N   58°41′25″E
temp.,
°C
wind,
m/s
gust,
m/s
humid.,
%
clouds,
%
prec.,
mm/h
press.,
hPa
HPBL,
m
6 august, fri
fri623:00+17nw3997100 4.1 1009390
02:00+15nnw489688 0.0 1010426
05:00+13nw489786 0.0 1010441
08:00+13nnw389399 0.0 1011514
11:00+18nnw576522 0.0 1011872
14:00+22nw67390 0.0 10111696
17:00+21nw67370 0.0 10121854
20:00+17nw49560 0.0 1013378
7 august, sat
sat723:00+11nw24810 0.0 101479
02:00+9wnw23900 0.0 101538
05:00+8wnw25940 0.0 101699
08:00+12nw497220 0.0 1016458
11:00+17nw6852100 0.0 10151154
14:00+18nw684996 0.0 10151379
17:00+19nw68464 0.0 10151685
20:00+16nw510580 0.0 1016710
8 august, sun
sun823:00+11nw24790 0.0 101767
02:00+10wnw311890 0.0 1017376
05:00+9nw4119414 0.0 1017414
08:00+11nw598698 0.0 1018430
11:00+17nw576967 0.0 1018851
14:00+18nnw587176 0.0 1018933
17:00+20n466465 0.0 10191153
20:00+19nw3871100 0.0 1019388
9 august, mon
mon923:00+15nnw25858 0.0 1020113
02:00+12nw229629 0.0 102016
05:00+11nw2297100 0.0 102122
08:00+14nw37805 0.0 1021328
11:00+19nw464864 0.0 1021971
14:00+22nw563649 0.0 10201371
17:00+21nw5640100 0.0 10201249
20:00+17nw376195 0.0 1021234
10 august, tue
tue1023:00+14nw2274100 0.0 102144
02:00+14wnw226912 0.0 102137
05:00+11w11805 0.0 102010
08:00+14nw127474 0.1 102092
11:00+15wsw128190 1.0 1020237
14:00+22wnw125516 0.1 10181010
17:00+24nw135189 0.1 10161625
20:00+19ne35759 0.0 1016106